SCP
0 0 0 0 0 0 0 -0 -0 -0 0 0 0 0 0 0 0 0 0 0 -1 -0 -0 -0 -1 -1 -0 -0 -0 -0 -0 -0 -0 -0 -0 -0 -0 -0 -0 -0 -0 -0 -0 -0 -0 -0 0 -0 -0
0 0 0 0 0 0 -0 0 -0 -0 0 0 0 0 0 0 0 -0 -0 -1 -0 -0 -0 -0 -0 -0 -0 -0 -0 -0 -0 -0 -0 -0 -0 -0 -0 0 0 -0 -0 -0 -0 0 0 0 0 0 -0
0 0 0 0 0 -0 0 0 0 -0 0 0 0 0 0 0 0 0 0 -0 0 0 0 0 -0 -0 -0 -0 -0 -0 -0 -0 -0 -0 -0 -0 -0 0 0 0 0 0 0 0 0 0 0 0 0
0 0 0 0 0 0 -0 0 -0 -0 0 0 0 0 0 0 1 1 -0 -0 0 0 -0 -0 -0 -0 -0 -0 -0 -0 -0 -0 -0 -0 -0 -0 -0 0 0 0 0 0 0 0 0 0 0 0 0
0 0 0 0 0 0 0 0 0 -0 0 0 0 0 0 0 1 1 1 1 0 0 0 0 0 -0 -0 -0 -0 -0 -0 -0 -0 -0 -0 -0 -0 0 0 0 0 0 0 0 0 0 0 0 0
0 0 0 0 0 0 0 0 0 0 0 0 0 0 0 0 0 1 0 1 0 0 0 0 0 0 0 -0 -0 -0 -0 0 0 0 0 0 0 0 0 0 0 0 0 0 0 0 0 0 0
0 0 0 0 0 0 -0 -0 0 0 0 0 0 0 0 0 0 0 1 1 0 1 0 0 0 0 0 0 0 0 0 0 0 0 0 0 0 0 0 0 0 0 0 0 0 0 0 0 0
0 0 0 0 0 0 0 0 0 0 0 0 0 0 0 0 0 1 1 1 1 1 0 0 0 0 0 0 0 0 0 0 0 0 0 0 0 0 0 0 0 0 0 0 0 0 0 0 0
0 0 0 0 0 0 0 0 0 0 0 0 0 0 0 0 0 1 0 1 1 1 1 0 0 0 0 0 0 0 0 0 0 0 0 0 0 0 0 0 0 0 0 0 0 0 0 0 0
0 0 0 0 0 0 0 0 0 0 0 0 0 0 0 0 0 0 1 1 2 1 1 0 0 0 0 0 0 0 0 0 0 0 0 0 0 0 0 0 1 1 0 0 0 0 0 0 0
0 0 0 0 0 0 0 0 0 0 0 0 0 0 0 0 0 0 0 1 2 2 2 0 0 0 0 0 0 0 0 0 0 0 0 0 0 0 0 0 0 1 0 0 0 0 0 0 0
0 0 0 0 0 0 0 0 0 0 0 0 0 0 0 0 0 0 -0 -0 5 2 2 2 1 0 0 1 0 0 0 0 0 0 0 0 -0 1 0 0 0 0 0 0 0 0 0 0 0
0 0 0 0 0 0 0 0 0 0 0 0 0 0 0 0 0 0 -0 -0 2 6 3 3 1 0 -0 1 0 0 0 0 0 0 0 0 0 1 1 -0 0 0 0 1 0 0 0 0 0
0 -0 0 0 0 0 0 0 0 0 0 0 0 0 0 0 0 0 -0 -0 1 3 3 4 2 1 0 1 0 -0 0 0 0 1 1 0 0 1 1 1 1 1 1 1 1 2 4 3 3
0 0 0 0 0 0 0 0 0 0 0 0 0 0 0 0 0 0 0 -0 1 6 0 1 2 1 1 3 1 0 0 1 1 1 1 1 1 1 1 1 1 2 3 4 4 4 3 2 1
0 0 0 0 0 0 0 0 0 0 0 0 0 0 0 0 0 0 -0 0 1 3 0 -0 0 0 1 2 2 1 1 1 1 0 2 2 2 2 3 2 2 3 0 0 0 0 0 0 0
0 0 0 0 0 0 0 0 0 0 0 0 0 0 0 0 0 0 0 0 2 4 1 1 -0 0 1 1 1 2 1 2 2 2 2 2 4 4 4 3 3 0 0 0 0 0 0 0 0
0 0 0 0 0 0 0 0 0 0 0 0 0 0 0 0 0 0 0 0 3 1 0 0 -0 0 1 1 2 1 2 2 3 3 3 7 5 5 4 4 1 1 1 0 0 0 0 0 0
0 0 0 0 0 0 0 0 0 0 0 0 0 0 0 0 0 0 0 1 3 1 2 0 1 1 2 2 2 3 3 3 4 5 6 7 7 6 3 3 2 1 1 0 0 0 0 0 0
0 0 0 0 0 0 0 0 0 0 0 0 0 0 0 0 0 0 0 1 2 0 0 0 0 0 1 2 3 3 2 3 4 5 5 5 5 4 4 1 1 1 0 0 0 0 0 0 0
0 0 0 0 0 0 0 0 0 0 0 0 0 0 0 0 0 0 0 0 0 0 0 0 -0 0 2 2 3 3 4 5 5 5 4 4 3 3 2 1 1 0 0 0 0 0 0 0 0
0 0 0 0 0 0 0 0 0 0 0 0 0 0 0 0 0 0 0 0 1 4 7 6 3 3 3 2 1 3 4 3 4 3 4 2 2 1 1 1 1 0 -0 0 0 0 0 0 0
0 0 0 0 0 0 0 0 0 0 0 0 0 0 0 0 0 0 0 0 0 2 5 5 4 3 3 2 2 3 3 5 5 3 2 1 1 1 1 1 0 0 0 1 1 0 0 0 0
0 0 0 0 0 0 0 0 0 0 0 0 0 0 0 0 0 0 0 0 0 1 4 6 4 2 2 3 3 3 4 4 3 2 1 1 0 0 0 0 0 0 0 0 0 0 0 0 0
0 0 0 0 0 0 0 0 0 0 0 0 0 0 0 0 0 0 0 0 0 1 5 7 3 2 4 3 3 5 4 3 2 1 1 1 0 0 0 0 0 0 0 0 0 0 0 0 0
0 0 0 0 0 0 0 0 0 -0 0 0 0 0 0 0 0 0 0 0 0 4 9 5 5 2 3 3 3 4 2 2 2 1 1 0 0 0 0 0 0 0 0 0 0 0 0 0 0
0 0 0 0 0 0 0 0 0 0 -0 0 0 0 0 0 0 0 0 0 9 8 4 6 3 2 2 2 2 2 1 1 1 0 0 0 0 0 0 0 0 0 0 0 0 0 0 0 0
0 0 0 1 0 0 0 0 0 0 0 0 0 0 0 0 0 0 6 8 7 2 4 4 2 1 1 1 1 1 1 0 0 0 0 0 0 0 0 0 0 0 0 0 0 0 0 0 0
-0 -0 0 0 0 -0 0 0 0 0 0 0 0 0 0 0 3 5 5 4 3 2 3 2 1 1 0 0 0 0 0 0 0 0 0 0 0 0 0 0 0 0 0 0 0 0 0 0 0
-0 0 -0 0 0 -0 0 0 0 0 0 0 0 3 4 5 3 2 3 3 2 2 1 1 0 0 0 0 0 0 0 0 0 0 0 0 0 0 0 0 0 0 0 0 0 0 0 0 0
Wind_Speed_500mb
18 12 8 21 14 16 35 40 44 46 3 2 15 20 20 38 22 14 10 23 44 58 60 54 47 43 37 33 31 32 32 30 26 21 17 15 17 21 24 24 22 22 22 20 17 13 13 13 12
18 15 22 22 20 28 32 41 47 42 4 14 13 15 25 8 34 47 63 41 45 60 59 55 49 44 38 33 33 34 33 31 26 21 16 14 17 21 24 21 18 19 20 18 13 11 9 10 12
19 16 28 12 30 36 35 43 34 41 26 25 10 5 22 14 42 46 49 46 39 60 58 53 49 43 39 35 33 36 35 32 27 22 16 15 16 20 22 19 16 17 17 15 13 11 10 11 11
10 19 24 26 45 44 53 44 51 46 20 23 17 14 4 16 20 28 48 44 37 47 50 51 49 43 39 36 35 34 35 30 26 23 18 18 19 20 20 18 16 15 14 13 11 11 11 12 12
28 29 21 35 51 51 45 51 63 50 18 25 29 21 9 16 23 27 37 36 36 41 44 52 48 43 40 37 35 33 32 28 24 21 19 18 19 20 22 19 16 14 12 11 11 12 12 13 14
28 37 29 37 49 48 48 66 65 42 26 18 24 27 21 33 23 28 40 38 38 45 42 52 50 44 40 37 34 32 28 25 23 21 19 18 19 21 22 19 16 14 13 12 13 13 14 15 16
37 29 37 45 44 44 48 66 44 45 40 31 28 28 29 21 32 34 40 38 41 41 41 56 53 49 43 38 35 31 27 24 23 21 19 19 20 22 22 20 17 14 13 13 14 16 17 17 19
53 31 51 46 39 49 48 49 48 59 52 39 42 22 32 29 41 40 42 42 44 40 42 60 57 53 49 44 38 33 29 26 23 21 20 20 22 24 24 22 19 16 14 14 15 17 19 20 21
52 32 37 54 54 42 45 38 50 21 20 33 45 37 15 18 33 45 44 48 47 43 46 53 60 58 54 49 44 39 33 29 26 25 24 23 24 25 25 23 21 19 17 17 17 19 22 23 25
40 34 59 48 46 47 50 48 49 14 17 30 42 19 39 22 27 43 53 60 62 54 55 58 62 65 57 53 51 46 40 35 32 29 27 26 22 15 20 13 17 19 20 19 20 21 23 25 26
59 58 47 50 63 66 47 44 40 26 29 42 45 37 44 36 37 42 53 69 82 77 60 67 62 61 56 48 54 52 46 41 36 32 28 25 20 15 14 23 15 23 26 21 19 17 24 25 25
53 66 66 62 64 56 43 58 42 32 33 28 45 40 48 51 43 51 54 54 69 57 75 72 65 61 57 54 38 46 41 40 37 31 27 29 26 24 16 22 24 13 18 8 14 15 17 20 15
62 55 69 74 66 68 60 52 45 51 35 41 33 32 49 22 39 44 54 60 58 80 66 85 63 66 66 55 35 39 32 27 24 23 22 27 27 23 17 22 22 24 11 17 10 19 25 19 11
57 62 63 69 69 64 50 49 53 56 51 46 53 32 22 35 28 44 50 64 50 71 59 82 57 58 68 50 40 50 40 29 29 33 23 12 22 25 19 19 17 24 15 4 19 10 21 24 27
68 59 53 57 66 59 62 54 62 56 57 59 54 54 43 44 45 48 62 68 42 83 77 25 37 58 63 48 44 53 44 37 31 32 34 24 25 20 27 18 20 27 33 37 38 32 27 27 26
50 48 52 61 55 59 56 70 56 66 60 56 60 54 63 55 57 56 65 65 55 66 58 53 65 65 77 64 42 43 36 37 31 27 32 27 22 34 30 29 29 28 39 41 37 36 44 38 41
45 49 66 56 59 56 52 74 48 62 69 61 57 62 60 62 65 67 64 52 53 66 67 49 54 53 61 71 52 45 33 35 26 27 30 28 29 35 42 38 40 41 38 40 40 42 35 32 32
52 63 54 56 48 53 57 61 47 58 61 64 65 65 64 65 75 75 62 54 49 47 68 83 72 56 52 56 47 43 37 35 31 22 26 32 39 38 39 41 39 41 43 45 41 31 12 24 38
57 55 58 56 54 51 54 62 49 48 57 47 68 69 70 72 72 80 66 60 47 53 60 34 35 46 54 44 55 48 43 35 33 32 31 36 36 34 31 36 34 35 35 30 30 18 37 34 20
67 65 62 55 55 54 54 59 52 49 48 52 49 67 71 66 74 75 66 53 50 55 94 47 72 62 54 43 50 46 36 30 32 32 33 32 33 31 32 32 30 27 24 26 27 35 19 8 12
61 62 58 61 53 55 49 54 45 53 50 59 58 68 69 79 79 77 67 65 41 67 74 101 83 65 56 46 48 37 36 37 35 28 27 22 24 20 26 23 20 16 19 25 29 11 16 16 6
60 61 61 62 54 43 43 33 44 46 41 47 52 55 61 72 81 80 69 71 57 43 45 49 56 59 54 51 44 47 48 39 32 24 24 16 16 12 11 8 8 9 9 12 15 17 19 19 22
53 60 60 61 54 50 61 33 35 43 41 45 48 64 58 69 74 80 65 73 69 53 52 52 53 54 59 53 49 45 36 37 35 35 31 30 30 22 17 8 2 14 11 15 18 19 19 29 34
51 55 59 56 45 45 53 46 41 36 49 54 50 57 61 60 70 78 68 71 66 58 54 53 49 48 46 51 44 42 46 43 45 43 39 37 33 34 25 21 21 22 17 23 24 26 27 22 24
39 39 27 39 37 35 48 50 39 51 49 54 51 59 61 57 59 73 76 77 67 58 60 56 50 44 40 43 46 44 43 37 36 41 38 31 32 33 21 25 31 30 27 21 18 16 19 24 23
48 45 19 49 34 37 45 56 51 49 50 57 58 62 65 62 61 67 72 76 73 63 68 58 45 46 53 56 50 52 45 40 40 37 34 38 35 31 33 31 24 16 6 8 13 16 17 22 30
46 36 46 49 42 34 40 44 55 47 56 42 46 66 69 71 62 61 64 79 78 79 68 63 52 49 53 50 48 42 39 39 37 49 33 24 24 27 20 17 14 5 5 11 13 1 17 20 26
53 34 42 16 15 45 20 55 39 57 51 35 35 48 77 72 63 57 67 82 79 77 66 53 51 51 49 46 40 44 46 42 37 30 25 31 26 21 18 15 8 8 7 12 14 11 14 22 24
28 39 37 19 24 9 15 23 55 46 53 34 35 54 68 72 66 71 73 68 65 63 56 51 49 50 47 44 44 45 41 36 36 36 35 30 23 17 13 10 8 3 3 14 20 18 16 16 22
35 46 38 22 31 19 11 13 19 52 40 36 13 62 78 80 73 65 67 67 60 52 58 58 57 50 49 44 40 42 48 45 41 34 26 24 23 20 19 17 16 11 9 18 20 17 19 25 25
Wind_Direction_500mb
257 253 288 274 244 230 250 249 248 273 47 331 21 343 320 336 123 129 350 162 170 156 152 154 158 156 155 156 159 169 172 171 168 161 152 148 144 143 143 143 146 155 160 160 159 140 145 154 150
234 252 247 260 237 242 245 241 262 264 314 118 80 297 292 37 104 148 149 164 164 157 153 154 158 156 155 157 159 168 172 173 173 169 161 158 154 153 153 150 151 159 168 174 176 172 164 166 163
213 193 240 224 236 240 247 252 237 254 256 132 148 263 304 349 104 122 142 155 163 157 157 157 158 159 156 156 157 169 172 176 176 175 171 165 163 163 164 161 160 164 168 174 179 184 186 180 176
227 226 243 249 240 231 243 264 276 290 199 159 183 265 249 49 48 111 136 145 144 155 163 160 160 160 158 158 156 166 171 178 182 181 177 174 172 173 173 175 177 180 188 195 204 207 203 196 191
225 245 229 231 241 253 260 239 249 266 259 224 178 236 215 135 90 117 137 146 144 151 167 164 164 163 161 160 157 160 169 177 183 188 184 179 179 181 179 183 191 199 206 212 214 217 213 210 206
221 226 242 236 244 242 239 259 273 278 271 251 263 217 236 124 137 142 155 154 157 167 168 167 166 166 166 162 161 162 167 174 179 184 189 185 185 185 187 192 199 205 211 216 221 224 223 222 219
237 230 233 244 253 253 235 230 236 256 252 220 243 229 238 199 158 158 166 163 161 176 177 171 170 171 170 167 166 165 166 171 177 185 187 190 190 191 193 199 205 212 218 224 227 228 230 230 230
228 247 252 246 252 255 258 263 240 223 235 230 234 214 229 259 165 157 172 169 166 172 171 174 175 175 174 172 173 170 170 171 175 183 189 193 195 194 199 207 214 220 232 238 237 236 238 239 239
226 245 244 243 248 249 258 266 266 250 229 245 255 246 242 192 150 158 176 173 172 172 180 177 179 180 179 179 176 174 174 175 179 186 190 194 200 202 207 214 223 230 242 245 246 246 244 243 245
225 235 236 246 251 253 260 262 258 211 219 236 240 204 196 185 190 182 182 180 176 178 182 184 186 182 177 181 181 179 180 181 185 189 193 193 196 213 218 243 244 249 243 248 256 258 257 255 255
232 236 242 243 250 265 271 274 265 225 224 213 241 192 218 209 206 217 205 190 186 184 182 184 190 178 171 180 182 183 184 187 190 193 195 196 172 205 215 231 267 279 265 263 268 284 275 270 262
235 237 242 253 264 273 266 269 274 224 233 212 225 217 223 225 210 220 221 218 183 201 184 191 185 172 170 195 190 187 190 190 192 197 201 194 171 198 240 218 262 307 320 291 297 309 327 320 299
234 242 241 243 250 259 267 269 247 268 213 233 244 225 214 212 214 214 229 224 201 190 186 190 185 170 168 195 192 172 187 192 185 198 219 194 171 202 226 208 236 254 316 282 281 269 286 297 305
242 246 245 246 243 246 251 254 257 238 248 233 228 224 207 190 214 230 227 235 217 197 178 181 177 174 170 187 193 169 189 195 180 204 216 218 172 209 224 221 215 226 227 212 196 210 210 218 233
248 260 253 237 240 243 245 259 240 234 231 238 221 224 207 215 222 222 228 233 225 184 175 141 186 187 184 176 186 171 185 199 194 197 211 233 198 210 212 217 220 220 220 227 235 228 224 229 241
253 251 245 240 244 234 230 248 236 236 230 226 227 220 226 213 218 223 229 225 238 200 198 171 202 201 189 183 182 174 182 192 198 190 200 209 226 206 208 228 231 227 227 236 245 250 244 251 254
247 240 234 241 237 235 216 244 241 240 216 225 216 225 216 220 225 229 228 227 203 176 169 173 195 206 195 189 186 178 191 190 189 197 219 233 222 215 227 225 234 240 248 256 259 255 253 255 267
223 231 240 246 234 238 230 240 234 241 238 209 217 209 219 217 219 227 226 227 192 225 212 186 193 196 194 184 188 187 191 193 197 195 198 211 220 215 227 238 246 251 260 266 263 253 258 290 291
239 238 240 238 238 250 224 242 226 227 243 223 205 213 210 218 220 220 220 232 214 190 185 182 194 211 208 189 190 186 185 192 198 200 206 213 212 230 241 239 250 256 259 262 252 246 302 299 296
245 249 255 259 242 225 236 237 227 220 223 242 215 204 214 211 220 217 206 220 227 210 212 207 199 210 208 211 195 195 195 192 193 208 212 219 230 239 236 252 251 252 261 263 243 286 291 185 141
243 236 250 254 252 252 226 235 230 212 224 223 230 213 208 206 211 217 199 209 198 196 202 174 183 188 200 198 188 178 180 187 184 192 213 207 228 219 238 238 248 254 248 251 260 228 170 166 227
249 248 239 244 251 250 238 235 224 205 213 243 226 222 208 203 205 210 200 189 202 175 170 166 174 188 194 190 181 186 187 181 183 196 186 199 208 200 219 229 218 191 164 157 159 162 206 257 272
250 244 247 243 239 253 252 243 235 194 202 222 217 212 220 199 201 199 200 184 185 185 176 176 197 202 193 184 186 184 176 180 180 174 171 162 170 167 165 83 145 167 161 214 217 245 267 281 285
233 257 249 249 242 234 235 244 220 219 201 213 226 217 208 199 199 192 198 183 174 181 179 182 201 183 183 186 184 180 188 184 176 179 193 203 198 173 156 162 218 227 231 250 264 270 287 287 282
242 252 240 227 229 235 216 238 241 206 232 206 210 207 204 200 193 187 191 176 175 178 170 174 191 177 176 178 177 176 190 193 196 193 198 204 188 179 203 215 241 252 251 272 278 279 282 290 288
228 219 216 227 216 230 236 219 229 239 207 232 207 204 192 195 186 184 186 168 170 173 165 169 164 175 179 183 175 186 194 193 188 185 180 170 188 204 206 199 214 235 241 286 285 308 306 314 309
230 217 232 243 258 231 223 232 229 230 237 207 215 191 185 183 184 182 189 176 158 164 163 163 173 180 176 180 175 178 178 180 178 164 178 208 191 180 190 201 199 201 224 259 277 302 278 296 298
238 240 216 196 218 238 251 216 216 210 227 217 209 177 183 180 177 184 135 147 154 158 163 161 173 181 176 177 170 166 169 172 170 173 179 174 180 187 185 201 212 218 247 280 286 259 260 277 311
247 232 230 204 234 262 244 250 205 204 223 217 192 176 162 162 137 120 119 133 142 151 157 158 168 165 158 156 158 158 160 159 160 160 162 166 170 168 165 147 116 93 255 276 298 315 346 304 289
273 263 229 211 213 201 293 276 276 215 214 186 108 107 114 121 123 120 121 126 128 139 146 153 151 146 148 148 147 141 139 142 145 150 150 146 143 128 136 155 171 215 290 304 327 337 284 288 295
Wind_Speed_850mb
18 12 8 21 14 16 35 40 44 46 3 2 15 20 20 38 22 14 10 23 44 58 60 54 47 43 37 33 31 32 32 30 26 21 17 15 17 21 24 24 22 22 22 20 17 13 13 13 12
18 15 22 22 20 28 32 41 47 42 4 14 13 15 25 8 34 47 63 41 45 60 59 55 49 44 38 33 33 34 33 31 26 21 16 14 17 21 24 21 18 19 20 18 13 11 9 10 12
19 16 28 12 30 36 35 43 34 41 26 25 10 5 22 14 42 46 49 46 39 60 58 53 49 43 39 35 33 36 35 32 27 22 16 15 16 20 22 19 16 17 17 15 13 11 10 11 11
10 19 24 26 45 44 53 44 51 46 20 23 17 14 4 16 20 28 48 44 37 47 50 51 49 43 39 36 35 34 35 30 26 23 18 18 19 20 20 18 16 15 14 13 11 11 11 12 12
28 29 21 35 51 51 45 51 63 50 18 25 29 21 9 16 23 27 37 36 36 41 44 52 48 43 40 37 35 33 32 28 24 21 19 18 19 20 22 19 16 14 12 11 11 12 12 13 14
28 37 29 37 49 48 48 66 65 42 26 18 24 27 21 33 23 28 40 38 38 45 42 52 50 44 40 37 34 32 28 25 23 21 19 18 19 21 22 19 16 14 13 12 13 13 14 15 16
37 29 37 45 44 44 48 66 44 45 40 31 28 28 29 21 32 34 40 38 41 41 41 56 53 49 43 38 35 31 27 24 23 21 19 19 20 22 22 20 17 14 13 13 14 16 17 17 19
53 31 51 46 39 49 48 49 48 59 52 39 42 22 32 29 41 40 42 42 44 40 42 60 57 53 49 44 38 33 29 26 23 21 20 20 22 24 24 22 19 16 14 14 15 17 19 20 21
52 32 37 54 54 42 45 38 50 21 20 33 45 37 15 18 33 45 44 48 47 43 46 53 60 58 54 49 44 39 33 29 26 25 24 23 24 25 25 23 21 19 17 17 17 19 22 23 25
40 34 59 48 46 47 50 48 49 14 17 30 42 19 39 22 27 43 53 60 62 54 55 58 62 65 57 53 51 46 40 35 32 29 27 26 22 15 20 13 17 19 20 19 20 21 23 25 26
59 58 47 50 63 66 47 44 40 26 29 42 45 37 44 36 37 42 53 69 82 77 60 67 62 61 56 48 54 52 46 41 36 32 28 25 20 15 14 23 15 23 26 21 19 17 24 25 25
53 66 66 62 64 56 43 58 42 32 33 28 45 40 48 51 43 51 54 54 69 57 75 72 65 61 57 54 38 46 41 40 37 31 27 29 26 24 16 22 24 13 18 8 14 15 17 20 15
62 55 69 74 66 68 60 52 45 51 35 41 33 32 49 22 39 44 54 60 58 80 66 85 63 66 66 55 35 39 32 27 24 23 22 27 27 23 17 22 22 24 11 17 10 19 25 19 11
57 62 63 69 69 64 50 49 53 56 51 46 53 32 22 35 28 44 50 64 50 71 59 82 57 58 68 50 40 50 40 29 29 33 23 12 22 25 19 19 17 24 15 4 19 10 21 24 27
68 59 53 57 66 59 62 54 62 56 57 59 54 54 43 44 45 48 62 68 42 83 77 25 37 58 63 48 44 53 44 37 31 32 34 24 25 20 27 18 20 27 33 37 38 32 27 27 26
50 48 52 61 55 59 56 70 56 66 60 56 60 54 63 55 57 56 65 65 55 66 58 53 65 65 77 64 42 43 36 37 31 27 32 27 22 34 30 29 29 28 39 41 37 36 44 38 41
45 49 66 56 59 56 52 74 48 62 69 61 57 62 60 62 65 67 64 52 53 66 67 49 54 53 61 71 52 45 33 35 26 27 30 28 29 35 42 38 40 41 38 40 40 42 35 32 32
52 63 54 56 48 53 57 61 47 58 61 64 65 65 64 65 75 75 62 54 49 47 68 83 72 56 52 56 47 43 37 35 31 22 26 32 39 38 39 41 39 41 43 45 41 31 12 24 38
57 55 58 56 54 51 54 62 49 48 57 47 68 69 70 72 72 80 66 60 47 53 60 34 35 46 54 44 55 48 43 35 33 32 31 36 36 34 31 36 34 35 35 30 30 18 37 34 20
67 65 62 55 55 54 54 59 52 49 48 52 49 67 71 66 74 75 66 53 50 55 94 47 72 62 54 43 50 46 36 30 32 32 33 32 33 31 32 32 30 27 24 26 27 35 19 8 12
61 62 58 61 53 55 49 54 45 53 50 59 58 68 69 79 79 77 67 65 41 67 74 101 83 65 56 46 48 37 36 37 35 28 27 22 24 20 26 23 20 16 19 25 29 11 16 16 6
60 61 61 62 54 43 43 33 44 46 41 47 52 55 61 72 81 80 69 71 57 43 45 49 56 59 54 51 44 47 48 39 32 24 24 16 16 12 11 8 8 9 9 12 15 17 19 19 22
53 60 60 61 54 50 61 33 35 43 41 45 48 64 58 69 74 80 65 73 69 53 52 52 53 54 59 53 49 45 36 37 35 35 31 30 30 22 17 8 2 14 11 15 18 19 19 29 34
51 55 59 56 45 45 53 46 41 36 49 54 50 57 61 60 70 78 68 71 66 58 54 53 49 48 46 51 44 42 46 43 45 43 39 37 33 34 25 21 21 22 17 23 24 26 27 22 24
39 39 27 39 37 35 48 50 39 51 49 54 51 59 61 57 59 73 76 77 67 58 60 56 50 44 40 43 46 44 43 37 36 41 38 31 32 33 21 25 31 30 27 21 18 16 19 24 23
48 45 19 49 34 37 45 56 51 49 50 57 58 62 65 62 61 67 72 76 73 63 68 58 45 46 53 56 50 52 45 40 40 37 34 38 35 31 33 31 24 16 6 8 13 16 17 22 30
46 36 46 49 42 34 40 44 55 47 56 42 46 66 69 71 62 61 64 79 78 79 68 63 52 49 53 50 48 42 39 39 37 49 33 24 24 27 20 17 14 5 5 11 13 1 17 20 26
53 34 42 16 15 45 20 55 39 57 51 35 35 48 77 72 63 57 67 82 79 77 66 53 51 51 49 46 40 44 46 42 37 30 25 31 26 21 18 15 8 8 7 12 14 11 14 22 24
28 39 37 19 24 9 15 23 55 46 53 34 35 54 68 72 66 71 73 68 65 63 56 51 49 50 47 44 44 45 41 36 36 36 35 30 23 17 13 10 8 3 3 14 20 18 16 16 22
35 46 38 22 31 19 11 13 19 52 40 36 13 62 78 80 73 65 67 67 60 52 58 58 57 50 49 44 40 42 48 45 41 34 26 24 23 20 19 17 16 11 9 18 20 17 19 25 25
Wind_Direction_850mb
257 253 288 274 244 230 250 249 248 273 47 331 21 343 320 336 123 129 350 162 170 156 152 154 158 156 155 156 159 169 172 171 168 161 152 148 144 143 143 143 146 155 160 160 159 140 145 154 150
234 252 247 260 237 242 245 241 262 264 314 118 80 297 292 37 104 148 149 164 164 157 153 154 158 156 155 157 159 168 172 173 173 169 161 158 154 153 153 150 151 159 168 174 176 172 164 166 163
213 193 240 224 236 240 247 252 237 254 256 132 148 263 304 349 104 122 142 155 163 157 157 157 158 159 156 156 157 169 172 176 176 175 171 165 163 163 164 161 160 164 168 174 179 184 186 180 176
227 226 243 249 240 231 243 264 276 290 199 159 183 265 249 49 48 111 136 145 144 155 163 160 160 160 158 158 156 166 171 178 182 181 177 174 172 173 173 175 177 180 188 195 204 207 203 196 191
225 245 229 231 241 253 260 239 249 266 259 224 178 236 215 135 90 117 137 146 144 151 167 164 164 163 161 160 157 160 169 177 183 188 184 179 179 181 179 183 191 199 206 212 214 217 213 210 206
221 226 242 236 244 242 239 259 273 278 271 251 263 217 236 124 137 142 155 154 157 167 168 167 166 166 166 162 161 162 167 174 179 184 189 185 185 185 187 192 199 205 211 216 221 224 223 222 219
237 230 233 244 253 253 235 230 236 256 252 220 243 229 238 199 158 158 166 163 161 176 177 171 170 171 170 167 166 165 166 171 177 185 187 190 190 191 193 199 205 212 218 224 227 228 230 230 230
228 247 252 246 252 255 258 263 240 223 235 230 234 214 229 259 165 157 172 169 166 172 171 174 175 175 174 172 173 170 170 171 175 183 189 193 195 194 199 207 214 220 232 238 237 236 238 239 239
226 245 244 243 248 249 258 266 266 250 229 245 255 246 242 192 150 158 176 173 172 172 180 177 179 180 179 179 176 174 174 175 179 186 190 194 200 202 207 214 223 230 242 245 246 246 244 243 245
225 235 236 246 251 253 260 262 258 211 219 236 240 204 196 185 190 182 182 180 176 178 182 184 186 182 177 181 181 179 180 181 185 189 193 193 196 213 218 243 244 249 243 248 256 258 257 255 255
232 236 242 243 250 265 271 274 265 225 224 213 241 192 218 209 206 217 205 190 186 184 182 184 190 178 171 180 182 183 184 187 190 193 195 196 172 205 215 231 267 279 265 263 268 284 275 270 262
235 237 242 253 264 273 266 269 274 224 233 212 225 217 223 225 210 220 221 218 183 201 184 191 185 172 170 195 190 187 190 190 192 197 201 194 171 198 240 218 262 307 320 291 297 309 327 320 299
234 242 241 243 250 259 267 269 247 268 213 233 244 225 214 212 214 214 229 224 201 190 186 190 185 170 168 195 192 172 187 192 185 198 219 194 171 202 226 208 236 254 316 282 281 269 286 297 305
242 246 245 246 243 246 251 254 257 238 248 233 228 224 207 190 214 230 227 235 217 197 178 181 177 174 170 187 193 169 189 195 180 204 216 218 172 209 224 221 215 226 227 212 196 210 210 218 233
248 260 253 237 240 243 245 259 240 234 231 238 221 224 207 215 222 222 228 233 225 184 175 141 186 187 184 176 186 171 185 199 194 197 211 233 198 210 212 217 220 220 220 227 235 228 224 229 241
253 251 245 240 244 234 230 248 236 236 230 226 227 220 226 213 218 223 229 225 238 200 198 171 202 201 189 183 182 174 182 192 198 190 200 209 226 206 208 228 231 227 227 236 245 250 244 251 254
247 240 234 241 237 235 216 244 241 240 216 225 216 225 216 220 225 229 228 227 203 176 169 173 195 206 195 189 186 178 191 190 189 197 219 233 222 215 227 225 234 240 248 256 259 255 253 255 267
223 231 240 246 234 238 230 240 234 241 238 209 217 209 219 217 219 227 226 227 192 225 212 186 193 196 194 184 188 187 191 193 197 195 198 211 220 215 227 238 246 251 260 266 263 253 258 290 291
239 238 240 238 238 250 224 242 226 227 243 223 205 213 210 218 220 220 220 232 214 190 185 182 194 211 208 189 190 186 185 192 198 200 206 213 212 230 241 239 250 256 259 262 252 246 302 299 296
245 249 255 259 242 225 236 237 227 220 223 242 215 204 214 211 220 217 206 220 227 210 212 207 199 210 208 211 195 195 195 192 193 208 212 219 230 239 236 252 251 252 261 263 243 286 291 185 141
243 236 250 254 252 252 226 235 230 212 224 223 230 213 208 206 211 217 199 209 198 196 202 174 183 188 200 198 188 178 180 187 184 192 213 207 228 219 238 238 248 254 248 251 260 228 170 166 227
249 248 239 244 251 250 238 235 224 205 213 243 226 222 208 203 205 210 200 189 202 175 170 166 174 188 194 190 181 186 187 181 183 196 186 199 208 200 219 229 218 191 164 157 159 162 206 257 272
250 244 247 243 239 253 252 243 235 194 202 222 217 212 220 199 201 199 200 184 185 185 176 176 197 202 193 184 186 184 176 180 180 174 171 162 170 167 165 83 145 167 161 214 217 245 267 281 285
233 257 249 249 242 234 235 244 220 219 201 213 226 217 208 199 199 192 198 183 174 181 179 182 201 183 183 186 184 180 188 184 176 179 193 203 198 173 156 162 218 227 231 250 264 270 287 287 282
242 252 240 227 229 235 216 238 241 206 232 206 210 207 204 200 193 187 191 176 175 178 170 174 191 177 176 178 177 176 190 193 196 193 198 204 188 179 203 215 241 252 251 272 278 279 282 290 288
228 219 216 227 216 230 236 219 229 239 207 232 207 204 192 195 186 184 186 168 170 173 165 169 164 175 179 183 175 186 194 193 188 185 180 170 188 204 206 199 214 235 241 286 285 308 306 314 309
230 217 232 243 258 231 223 232 229 230 237 207 215 191 185 183 184 182 189 176 158 164 163 163 173 180 176 180 175 178 178 180 178 164 178 208 191 180 190 201 199 201 224 259 277 302 278 296 298
238 240 216 196 218 238 251 216 216 210 227 217 209 177 183 180 177 184 135 147 154 158 163 161 173 181 176 177 170 166 169 172 170 173 179 174 180 187 185 201 212 218 247 280 286 259 260 277 311
247 232 230 204 234 262 244 250 205 204 223 217 192 176 162 162 137 120 119 133 142 151 157 158 168 165 158 156 158 158 160 159 160 160 162 166 170 168 165 147 116 93 255 276 298 315 346 304 289
273 263 229 211 213 201 293 276 276 215 214 186 108 107 114 121 123 120 121 126 128 139 146 153 151 146 148 148 147 141 139 142 145 150 150 146 143 128 136 155 171 215 290 304 327 337 284 288 295